Ulm, AR

6:02 AM CST on February 13, 2016 (GMT -0600)
Stuttgart Municipal

Weather History for KSGT - March, 2013

Change the Weather History Date:

Wednesday, March 27, 2013

  Actual Average Record
Temperature  
Mean Temperature 44 °F -  
Max Temperature 55 °F 63 °F 82 °F (2012)
Min Temperature 33 °F 46 °F 33 °F (2002)
Degree Days  
Heating Degree Days 21    
Moisture  
Dew Point 30 °F    
Average Humidity 58    
Maximum Humidity 75    
Minimum Humidity 38    
Precipitation  
Precipitation 0.00 in - - ()
Sea Level Pressure  
Sea Level Pressure 30.36 in    
Wind  
Wind Speed - (North)    
Max Wind Speed -    
Max Gust Speed -    
Visibility 10 miles    
Events      
Averages and records for this station are not official NWS values.
T = Trace of Precipitation, MM = Missing Value Source: NWS Daily Summary

Daily Weather History Graph

Daily Weather History Graph

Search for Another Location

Airport or City:

Trip Planner

Search our weather history database for the weather conditions in past years. The results will help you decide how hot, cold, wet, or windy it might be!

Date:

Astronomy

Mar. 27, 2013 Rise Set
Actual Time 6:59 AM CDT 7:23 PM CDT
Civil Twilight 6:34 AM CDT 7:48 PM CDT
Nautical Twilight 6:05 AM CDT 8:18 PM CDT
Astronomical Twilight 5:35 AM CDT 8:48 PM CDT
Moon 8:04 PM CDT (3/27) 6:53 AM CDT (3/27)
Length of Visible Light 13h 14m
Length of Day
12h 23m
Full, 100% of the Moon is Illuminated
Mar 27
Full
Apr 2
Last Quarter
Apr 10
New
Apr 18
First Quarter
Apr 25
Full

Hourly Weather History & Observations

Time (CDT) Temp. Dew Point Humidity Pressure Visibility Wind Dir Wind Speed Gust Speed Precip Events Conditions
12:15 AM 35.6 °F 28.4 °F 75% 30.39 in 10.0 mi North - - N/A   Clear
12:35 AM 35.6 °F 28.4 °F 75% 30.38 in 10.0 mi North - - N/A   Clear
12:55 AM 35.6 °F 28.4 °F 75% 30.38 in 10.0 mi North - - N/A   Clear
1:15 AM 35.6 °F 28.4 °F 75% 30.38 in 10.0 mi North - - N/A   Clear
1:35 AM 35.6 °F 28.4 °F 75% 30.39 in 10.0 mi North - - N/A   Clear
1:55 AM 35.6 °F 28.4 °F 75% 30.38 in 10.0 mi North - - N/A   Clear
2:15 AM 35.6 °F 26.6 °F 70% 30.38 in 10.0 mi North - - N/A   Clear
2:35 AM 35.6 °F 26.6 °F 70% 30.39 in 10.0 mi North - - N/A   Clear
2:55 AM 33.8 °F 26.6 °F 75% 30.39 in 10.0 mi North - - N/A   Clear
3:15 AM 35.6 °F 26.6 °F 70% 30.38 in 10.0 mi North - - N/A   Clear
3:35 AM 35.6 °F 26.6 °F 70% 30.38 in 10.0 mi North - - N/A   Clear
3:55 AM 35.6 °F 26.6 °F 70% 30.38 in 10.0 mi North - - N/A   Clear
4:15 AM 35.6 °F 26.6 °F 70% 30.38 in 10.0 mi North - - N/A   Clear
4:35 AM 35.6 °F 26.6 °F 70% 30.38 in 10.0 mi North - - N/A   Clear
4:55 AM 35.6 °F 26.6 °F 70% 30.38 in 10.0 mi North - - N/A   Clear
5:15 AM 33.8 °F 26.6 °F 75% 30.38 in 10.0 mi North - - N/A   Clear
5:35 AM 33.8 °F 26.6 °F 75% 30.38 in 10.0 mi North - - N/A   Clear
5:55 AM 33.8 °F 26.6 °F 75% 30.38 in 10.0 mi North - - N/A   Clear
6:15 AM 33.8 °F 26.6 °F 75% 30.39 in 10.0 mi North - - N/A   Clear
6:35 AM 33.8 °F 26.6 °F 75% 30.39 in 10.0 mi North - - N/A   Clear
6:55 AM 33.8 °F 26.6 °F 75% 30.39 in 10.0 mi North - - N/A   Clear
7:15 AM 33.8 °F 26.6 °F 75% 30.40 in 10.0 mi North - - N/A   Clear
7:35 AM 33.8 °F 26.6 °F 75% 30.41 in 10.0 mi North - - N/A   Clear
7:55 AM 33.8 °F 26.6 °F 75% 30.41 in 10.0 mi North - - N/A   Clear
8:15 AM 35.6 °F 28.4 °F 75% 30.42 in 10.0 mi North - - N/A   Clear
8:35 AM 37.4 °F 28.4 °F 70% 30.43 in 10.0 mi North - - N/A   Clear
8:55 AM 39.2 °F 28.4 °F 65% 30.43 in 10.0 mi North - - N/A   Clear
9:15 AM 41.0 °F 30.2 °F 65% 30.44 in 10.0 mi North - - N/A   Clear
9:35 AM 44.6 °F 30.2 °F 57% 30.44 in 10.0 mi North - - N/A   Clear
9:55 AM 44.6 °F 30.2 °F 57% 30.44 in 10.0 mi North - - N/A   Clear
10:15 AM 46.4 °F 30.2 °F 53% 30.43 in 10.0 mi North - - N/A   Clear
10:35 AM 48.2 °F 30.2 °F 50% 30.44 in 10.0 mi North - - N/A   Clear
10:55 AM 48.2 °F 28.4 °F 46% 30.44 in 10.0 mi North - - N/A   Clear
11:15 AM 51.8 °F 28.4 °F 41% 30.44 in 10.0 mi North - - N/A   Clear
11:35 AM 51.8 °F 28.4 °F 41% 30.44 in 10.0 mi North - - N/A   Clear
11:55 AM 51.8 °F 30.2 °F 44% 30.44 in 10.0 mi North - - N/A   Clear
12:15 PM 51.8 °F 30.2 °F 44% 30.43 in 10.0 mi North - - N/A   Clear
12:35 PM 53.6 °F 30.2 °F 41% 30.43 in 10.0 mi North - - N/A   Clear
12:55 PM 53.6 °F 30.2 °F 41% 30.42 in 10.0 mi North - - N/A   Clear
1:15 PM 53.6 °F 30.2 °F 41% 30.41 in 10.0 mi North - - N/A   Clear
1:35 PM 55.4 °F 30.2 °F 38% 30.40 in 10.0 mi North - - N/A   Clear
1:55 PM 55.4 °F 30.2 °F 38% 30.39 in 10.0 mi North - - N/A   Clear
2:15 PM 55.4 °F 30.2 °F 38% 30.37 in 10.0 mi North - - N/A   Clear
2:35 PM 53.6 °F 28.4 °F 38% 30.36 in 10.0 mi North - - N/A   Clear
2:55 PM 55.4 °F 30.2 °F 38% 30.35 in 10.0 mi North - - N/A   Clear
3:15 PM 55.4 °F 30.2 °F 38% 30.34 in 10.0 mi North - - N/A   Clear
3:35 PM 55.4 °F 32.0 °F 41% 30.33 in 10.0 mi North - - N/A   Clear
3:55 PM 55.4 °F 30.2 °F 38% 30.33 in 10.0 mi North - - N/A   Clear
4:15 PM 55.4 °F 32.0 °F 41% 30.32 in 10.0 mi North - - N/A   Clear
4:35 PM 55.4 °F 30.2 °F 38% 30.32 in 10.0 mi North - - N/A   Clear
4:55 PM 55.4 °F 32.0 °F 41% 30.31 in 10.0 mi North - - N/A   Clear
5:15 PM 55.4 °F 30.2 °F 38% 30.31 in 10.0 mi North - - N/A   Clear
5:35 PM 55.4 °F 30.2 °F 38% 30.30 in 10.0 mi North - - N/A   Clear
5:55 PM 55.4 °F 33.8 °F 44% 30.30 in 10.0 mi North - - N/A   Clear
6:15 PM 55.4 °F 32.0 °F 41% 30.30 in 10.0 mi North - - N/A   Clear
6:35 PM 55.4 °F 32.0 °F 41% 30.29 in 10.0 mi North - - N/A   Clear
6:55 PM 53.6 °F 35.6 °F 51% 30.29 in 10.0 mi North - - N/A   Clear
7:15 PM 53.6 °F 33.8 °F 47% 30.28 in 10.0 mi North - - N/A   Clear
7:35 PM 51.8 °F 35.6 °F 54% 30.28 in 10.0 mi North - - N/A   Clear
7:55 PM 50.0 °F 35.6 °F 58% 30.29 in 10.0 mi North - - N/A   Clear
8:15 PM 48.2 °F 35.6 °F 62% 30.28 in 6.0 mi North - - N/A   Clear
8:35 PM 48.2 °F 35.6 °F 62% 30.27 in 10.0 mi North - - N/A   Clear
8:55 PM 48.2 °F 35.6 °F 62% 30.27 in 10.0 mi North - - N/A   Clear
9:15 PM 46.4 °F 35.6 °F 66% 30.28 in 10.0 mi North - - N/A   Clear
9:35 PM 46.4 °F 33.8 °F 62% 30.29 in 10.0 mi North - - N/A   Clear
9:55 PM 46.4 °F 33.8 °F 62% 30.30 in 10.0 mi North - - N/A   Clear
10:15 PM 46.4 °F 35.6 °F 66% 30.31 in 10.0 mi North - - N/A   Clear
10:35 PM 46.4 °F 33.8 °F 62% 30.31 in 10.0 mi North - - N/A   Clear
10:55 PM 44.6 °F 33.8 °F 66% 30.32 in 10.0 mi North - - N/A   Clear
11:15 PM 46.4 °F 35.6 °F 66% 30.33 in 10.0 mi North - - N/A   Clear
11:35 PM 44.6 °F 33.8 °F 66% 30.33 in 10.0 mi North - - N/A   Clear
11:55 PM 44.6 °F 33.8 °F 66% 30.33 in 10.0 mi North - - N/A   Clear